Weather History for KIGX - October, 2012

Change the Weather History Date:

Monday, October 22, 2012

  Actual Average Record
Temperature  
Mean Temperature 57 °F -  
Max Temperature 75 °F 68 °F 86 °F (1949)
Min Temperature 41 °F 40 °F 24 °F (1987)
Degree Days  
Heating Degree Days 8    
Growing Degree Days 7 (Base 50)    
Moisture  
Dew Point 44 °F    
Average Humidity 73    
Maximum Humidity 93    
Minimum Humidity 32    
Precipitation  
Precipitation 0.00 in - - ()
Sea Level Pressure  
Sea Level Pressure 30.18 in    
Wind  
Wind Speed 0 mph (WNW)    
Max Wind Speed 4 mph    
Max Gust Speed -    
Visibility 10 miles    
Events      
Averages and records for this station are not official NWS values.
T = Trace of Precipitation, MM = Missing Value Source: NWS Daily Summary

Daily Weather History Graph

Daily Weather History Graph

Search for Another Location

Airport or City:

Trip Planner

Search our weather history database for the weather conditions in past years. The results will help you decide how hot, cold, wet, or windy it might be!

Date:

Astronomy

Oct. 22, 2012 Rise Set
Actual Time 7:29 AM EDT 6:31 PM EDT
Civil Twilight 7:03 AM EDT 6:57 PM EDT
Nautical Twilight 6:33 AM EDT 7:27 PM EDT
Astronomical Twilight 6:03 AM EDT 7:56 PM EDT
Moon 2:26 PM EDT (10/22) 12:27 AM EDT (10/22)
Length of Visible Light 11h 53m
Length of Day
11h 01m
First Quarter, 56% of the Moon is Illuminated
Oct 22
First Quarter
Oct 29
Full
Nov 6
Last Quarter
Nov 13
New
Nov 20
First Quarter

Hourly Weather History & Observations

Time (EDT) Temp. Windchill Dew Point Humidity Pressure Visibility Wind Dir Wind Speed Gust Speed Precip Events Conditions
12:56 AM 44.1 °F - 42.1 °F 93% 30.16 in 10.0 mi Calm Calm - N/A   Clear
1:56 AM 44.1 °F - 42.1 °F 93% 30.16 in 10.0 mi Calm Calm - N/A   Clear
2:56 AM 44.1 °F - 41.0 °F 89% 30.17 in 10.0 mi Calm Calm - N/A   Clear
3:56 AM 44.1 °F - 41.0 °F 89% 30.16 in 10.0 mi Calm Calm - N/A   Clear
4:56 AM 43.0 °F 41.3 °F 39.9 °F 89% 30.17 in 10.0 mi West 3.5 mph - N/A   Clear
5:56 AM 44.1 °F 42.5 °F 41.0 °F 89% 30.19 in 10.0 mi West 3.5 mph - N/A   Clear
6:56 AM 42.1 °F - 39.9 °F 92% 30.21 in 10.0 mi Calm Calm - N/A   Clear
7:56 AM 41.0 °F - 39.0 °F 93% 30.23 in 9.0 mi Calm Calm - N/A   Clear
10:56 AM 62.1 °F - 48.0 °F 60% 30.24 in 10.0 mi Calm Calm - N/A   Clear
11:56 AM 66.9 °F - 45.0 °F 45% 30.23 in - North - - N/A   Unknown
12:56 PM - - - N/A% 30.22 in - Calm Calm - N/A   Unknown
1:56 PM 73.0 °F - 44.1 °F 35% 30.18 in 10.0 mi North 3.5 mph - N/A   Clear
2:56 PM 73.0 °F - 43.0 °F 34% 30.16 in 10.0 mi Calm Calm - N/A   Clear
3:56 PM 73.9 °F - 42.1 °F 32% 30.15 in 10.0 mi Calm Calm - N/A   Clear
4:56 PM 72.0 °F - 45.0 °F 38% 30.14 in 10.0 mi Calm Calm - N/A   Clear
5:56 PM 64.0 °F - 50.0 °F 60% 30.15 in 10.0 mi Calm Calm - N/A   Clear
7:56 PM 55.9 °F - 50.0 °F 80% 30.17 in 10.0 mi Calm Calm - N/A   Clear
8:56 PM 54.0 °F - 50.0 °F 86% 30.18 in 10.0 mi Calm Calm - N/A   Clear
9:56 PM 52.0 °F - 48.9 °F 89% 30.19 in 10.0 mi Calm Calm - N/A   Clear
10:56 PM 52.0 °F - 48.9 °F 89% 30.19 in 10.0 mi Calm Calm - N/A   Clear
11:56 PM 50.0 °F - 48.0 °F 93% 30.18 in 10.0 mi Calm Calm - N/A   Clear